Location: Borowce
(50.8255°N, 19.6209°E)
Time: 22:13:45
(UTC+00:00)

Cosmos 2082 Rocket - Pass Details

Date: 19 May 2025
Orbit: 832 x 853 km, 71.0° (Epoch: 16 June)

Event Time Altitude Azimuth Distance (km) Brightness Sun altitude
Rises 23:24:43 0° 262° (W) 3,377 5.1 -18.4°
Reaches altitude 10° 23:27:51 10° 279° (W) 2,448 4.6 -18.3°
Maximum altitude 23:31:52 20° 325° (NW) 1,865 4.5 -18.2°
Drops below altitude 10° 23:35:55 10° 11° (NNE) 2,463 5.9 -18.0°
Sets 23:39:05 0° 29° (NNE) 3,404 6.9 -17.9°
